User: anonymous   Login
Location: Hackbridge
(51.3833°N, 0.1500°W)
Time: 00:28:12
(UTC+00:00)
Language:

STARLINK-61 - Orbit

View from above orbital plane
View from above orbital plane
View from above satellite
View from above satellite

Ground track
Ground track

The orbit data is extracted from the following two-line orbital elements,

1 44249U 19029Q   19339.50001157  .00036665  00000-0  21100-2 0  9990
2 44249  53.0023   8.0387 0004119 356.2530  18.5003 15.12118922 29700
Epoch (UTC): 05 December 2019 12:00:01
Eccentricity: 0.0004119
inclination: 53.0023°
perigee height: 527 km
apogee height: 532 km
right ascension of ascending node: 8.0387°
argument of perigee: 356.2530°
revolutions per day: 15.12118922
mean anomaly at epoch: 18.5003°
orbit number at epoch: 2970

The dashed part of the orbit path shows where the satellite is in the earth's shadow,  

DLR